| time (UTC) | temp F | wind direction | speed knots | gust knots | rain 1hr in | rain 24hr in | rain mn in | humidity % | barometer mb |
| 20260505081605 | 49 | 248 | 2.6 | 7.8 | 0.00 | 0.00 | 0.00 | 46 | 1010.9 |
| 20260505080057 | 49 | 315 | 1.7 | 10.4 | 0.00 | 0.00 | 0.00 | 47 | 1010.9 |
| 20260505074608 | 49 | 275 | 1.7 | 7.8 | 0.00 | 0.00 | 0.00 | 45 | 1010.9 |
| 20260505073053 | 48 | 317 | 1.7 | 7.8 | 0.00 | 0.00 | 0.00 | 50 | 1010.7 |
| 20260505071545 | 47 | 272 | 1.7 | 4.3 | 0.00 | 0.00 | 0.00 | 52 | 1010.5 |
| 20260505070042 | 46 | 229 | 1.7 | 6.1 | 0.00 | 0.00 | 0.00 | 55 | 1010.4 |
| 20260505064539 | 46 | 346 | 2.6 | 7.0 | 0.00 | 0.00 | 0.00 | 57 | 1010.2 |
| 20260505063042 | 46 | 230 | 0.9 | 7.0 | 0.00 | 0.00 | 0.00 | 58 | 1010.2 |
| 20260505061555 | 46 | 313 | 2.6 | 7.0 | 0.00 | 0.00 | 0.00 | 57 | 1010.2 |
| 20260505060034 | 46 | 26 | 2.6 | 7.8 | 0.00 | 0.00 | 0.00 | 58 | 1010.0 |
| 20260505054532 | 45 | 352 | 0.9 | 7.8 | 0.00 | 0.00 | 0.00 | 61 | 1010.0 |
| 20260505053030 | 45 | 359 | 2.6 | 5.2 | 0.00 | 0.00 | 0.00 | 64 | 1009.9 |
| 20260505051532 | 45 | 359 | 1.7 | 5.2 | 0.00 | 0.00 | 0.00 | 64 | 1009.9 |
| 20260505041523 | 44 | 15 | 0.9 | 6.1 | 0.00 | 0.00 | 0.00 | 67 | 1009.4 |
| 20260505040023 | 44 | 281 | 2.6 | 7.8 | 0.00 | 0.00 | 0.00 | 67 | 1009.3 |
| 20260505034546 | 45 | 325 | 0.9 | 8.7 | 0.00 | 0.00 | 0.00 | 69 | 1009.2 |
| 20260504231541 | 46 | 252 | 7.8 | 14.8 | 0.00 | 0.06 | 0.00 | 84 | 1008.8 |
| 20260504230040 | 46 | 240 | 7.8 | 15.6 | 0.00 | 0.06 | 0.00 | 84 | 1008.9 |
| 20260504224538 | 46 | 238 | 9.6 | 16.5 | 0.00 | 0.06 | 0.00 | 84 | 1009.0 |
| 20260504223038 | 47 | 200 | 7.0 | 18.2 | 0.00 | 0.06 | 0.00 | 83 | 1008.9 |
| 20260504221538 | 47 | 225 | 5.2 | 14.8 | 0.00 | 0.06 | 0.00 | 84 | 1009.0 |
| 20260504220032 | 47 | 223 | 7.0 | 18.2 | 0.00 | 0.06 | 0.00 | 83 | 1009.0 |
| 20260504214530 | 47 | 246 | 6.1 | 18.2 | 0.00 | 0.06 | 0.06 | 83 | 1009.1 |
| 20260504213029 | 47 | 248 | 8.7 | 20.9 | 0.00 | 0.06 | 0.06 | 83 | 1009.0 |
| 20260504211527 | 47 | 232 | 8.7 | 17.4 | 0.00 | 0.06 | 0.06 | 82 | 1008.9 |
| 20260504210028 | 47 | 231 | 7.8 | 20.9 | 0.00 | 0.06 | 0.06 | 82 | 1008.9 |
| 20260504204531 | 47 | 256 | 8.7 | 17.4 | 0.00 | 0.06 | 0.06 | 82 | 1008.9 |
| 20260504203026 | 47 | 283 | 13.0 | 21.7 | 0.00 | 0.06 | 0.06 | 82 | 1008.8 |
| 20260504201523 | 48 | 275 | 7.0 | 20.9 | 0.00 | 0.06 | 0.06 | 81 | 1008.8 |
| 20260504200022 | 48 | 223 | 8.7 | 17.4 | 0.00 | 0.06 | 0.06 | 80 | 1008.8 |
| 20260504194520 | 48 | 278 | 8.7 | 19.1 | 0.00 | 0.06 | 0.06 | 79 | 1009.0 |
| 20260504193019 | 48 | 271 | 7.8 | 19.1 | 0.00 | 0.06 | 0.06 | 78 | 1008.9 |
| 20260504191518 | 48 | 250 | 8.7 | 18.2 | 0.00 | 0.06 | 0.06 | 77 | 1008.9 |
| 20260504190019 | 48 | 244 | 7.8 | 20.9 | 0.00 | 0.06 | 0.06 | 76 | 1008.9 |
| 20260504184522 | 49 | 240 | 11.3 | 18.2 | 0.00 | 0.06 | 0.06 | 75 | 1008.9 |
| 20260504183014 | 49 | 236 | 8.7 | 17.4 | 0.00 | 0.06 | 0.06 | 75 | 1008.8 |
| 20260504181515 | 49 | 222 | 7.0 | 18.2 | 0.00 | 0.06 | 0.06 | 73 | 1008.9 |
| 20260504180012 | 50 | 235 | 10.4 | 19.1 | 0.00 | 0.06 | 0.06 | 73 | 1008.7 |
| 20260504174509 | 50 | 233 | 11.3 | 17.4 | 0.00 | 0.06 | 0.06 | 73 | 1008.7 |
| 20260504173010 | 51 | 236 | 9.6 | 18.2 | 0.00 | 0.06 | 0.06 | 74 | 1008.9 |
| 20260504171507 | 51 | 250 | 7.8 | 15.6 | 0.00 | 0.06 | 0.06 | 73 | 1008.9 |